Location: Unspecified
(0.0000°N, 0.0000°E)
Time: 13:43:02
(UTC+00:00)

Tiangong - Pass Details

Date: 23 May 2022
Orbit: 385 x 390 km, 41.5° (Epoch: 19 May)

Event Time Altitude Azimuth Distance (km) Brightness Sun altitude
Rises 20:00:20 0° 322° (NW) 2,251 5.9 -28.7°
Reaches altitude 10° 20:02:26 10° 327° (NNW) 1,401 4.6 -29.2°
Enters shadow 20:02:30 11° 328° (NNW) 1,371 4.5 -29.2°
